[[{"header":{"parameterUnit":"m.s-1","parameterCategory":1,"la1":30.2991,"la2":30.254,"lo1":-89.0895,"lo2":-89.0444,"dy":0.0017,"dx":0.0017,"nx":28,"ny":28,"refTime":"2024-04-18T03:00:00:Z","depth":0,"parameterNumber":2,"parameterNumberName":"U-component_of_WINDS"},"data":[0,0,0,0,0,0,0,0,0,0,0,0,0,0,0,0,0,0,0,0,0,0,0,0,0,0,0,0,0,0,0,0,0,0,0,0,0,0,0,0,0,0,0,0,0,0,0,0,0,0,0,0,0,0,0,0,0,0,-2.0708,-2.0708,0,-2.0654,-2.0654,-2.0653,-2.0595,-2.0594,-2.0593,-2.0593,-2.0536,-2.0536,-2.0535,0,0,0,0,0,0,0,0,0,0,0,0,0,-2.0761,-2.076,-2.0708,-2.0708,-2.0707,-2.0655,-2.0654,-2.0653,-2.0595,-2.0594,-2.0593,-2.0592,-2.0537,-2.0536,-2.0535,0,0,0,0,0,0,0,0,0,0,0,0,0,-2.0726,-2.076,-2.0709,-2.0672,-2.0668,-2.0655,-2.0654,-2.0653,-2.0595,-2.0594,-2.0593,-2.0592,-2.0537,-2.0536,-2.0535,-2.0553,0,0,-2.0531,-2.0531,0,0,0,0,0,0,0,0,-2.0728,-2.0724,-2.0678,-2.0674,-2.067,-2.063,-2.0652,-2.0619,-2.0596,-2.0623,-2.0593,-2.0591,-2.0569,-2.0565,-2.0557,-2.055,-2.0548,-2.0531,-2.0531,-2.053,-2.053,0,0,0,0,0,0,0,-2.073,-2.0726,-2.0687,-2.0677,-2.0673,-2.0658,-2.0652,-2.0645,-2.0603,-2.0621,-2.0616,-2.0611,-2.0566,-2.0559,-2.0556,-2.0547,-2.0531,-2.053,-2.053,-2.0529,-2.0552,-2.0553,0,0,0,0,0,0,-2.0738,-2.0728,-2.0689,-2.0685,-2.0697,-2.0658,-2.0651,-2.0644,-2.0603,-2.0596,-2.0612,-2.0608,-2.0561,-2.0557,-2.0553,-2.0572,-2.053,-2.0529,-2.0529,-2.0551,-2.0552,-2.0554,0,0,0,0,0,0,-2.074,-2.0735,-2.0691,-2.0706,-2.0699,-2.0659,-2.0651,-2.0644,-2.0636,-2.0597,-2.0589,-2.0612,-2.056,-2.0555,-2.0554,-2.0569,-2.0529,-2.0528,-2.0549,-2.0551,-2.0553,-2.0609,0,0,0,0,0,0,-2.0742,-2.0736,-2.0743,-2.0706,-2.0698,-2.0692,-2.0652,-2.0644,-2.0635,-2.0629,-2.0594,-2.0588,-2.0559,-2.0555,-2.0552,-2.0567,-2.0527,-2.0548,-2.055,-2.0553,-2.0605,-2.0612,-2.0618,0,0,0,0,0,-2.0744,-2.076,-2.0743,-2.0739,-2.0706,-2.0693,-2.0689,-2.0655,-2.0636,-2.0642,-2.0617,-2.0589,-2.0568,-2.0556,-2.0552,-2.0566,-2.0547,-2.055,-2.0552,-2.0602,-2.0611,-2.0618,0,0,0,0,0,0,-2.0799,-2.0755,-2.0735,-2.0741,-2.0721,-2.0683,-2.069,-2.0665,-2.065,-2.0646,-2.0605,-2.0598,-2.0601,-2.0583,-2.0571,-2.0581,-2.0553,-2.0556,-2.0593,-2.06,-2.0607,-2.061,-2.0526,0,0,0,0,0,-2.0812,-2.0806,-2.0767,-2.0776,-2.0767,-2.0731,-2.0724,-2.07,-2.0678,-2.0669,-2.0644,-2.0623,-2.0612,-2.0605,-2.0593,-2.0603,-2.0594,-2.0611,-2.0617,-2.0623,-2.0625,-2.0629,-2.0635,-2.0563,-2.0563,-2.0563,0,0,-2.0838,-2.0813,-2.0812,-2.0786,-2.0768,-2.0763,-2.0724,-2.0719,-2.0715,-2.0668,-2.0665,-2.0646,-2.0621,-2.0625,-2.0626,-2.061,-2.0643,-2.0626,-2.0631,-2.063,-2.0632,-2.0639,-2.0645,-2.0565,-2.0565,-2.0564,0,0,-2.0883,-2.0864,-2.0869,-2.0852,-2.0825,-2.0801,-2.0803,-2.0769,-2.0754,-2.0751,-2.0716,-2.071,-2.0692,-2.0675,-2.0664,-2.0704,-2.0678,-2.0701,-2.0735,-2.0739,-2.0745,-2.0749,-2.0763,-2.0769,-2.0704,-2.0704,-2.0704,0,-2.0919,-2.0909,-2.0874,-2.0872,-2.0862,-2.0821,-2.0825,-2.081,-2.0781,-2.0775,-2.0759,-2.0735,-2.0715,-2.0715,-2.0725,-2.0718,-2.0718,-2.0704,-2.0747,-2.0751,-2.0755,-2.0768,-2.0773,-2.0707,-2.0707,-2.0706,-2.0706,0,-2.0955,-2.0949,-2.0956,-2.0929,-2.092,-2.0921,-2.0886,-2.0881,-2.0859,-2.0836,-2.0834,-2.0808,-2.079,-2.0788,-2.0766,-2.0785,-2.0777,-2.0754,-2.0725,-2.0766,-2.0777,-2.0781,-2.0711,-2.071,-2.0709,-2.0709,0,0,-2.1032,-2.0987,-2.099,-2.0977,-2.0945,-2.094,-2.094,-2.0922,-2.0918,-2.09,-2.0899,-2.0885,-2.0864,-2.0852,-2.0827,-2.0831,-2.0865,-2.0808,-2.0807,-2.0819,-2.0884,-2.09,-2.0906,-2.0847,-2.0848,-2.0849,-2.0886,0,-2.107,-2.1067,-2.1036,-2.1042,-2.1036,-2.0997,-2.0997,-2.0977,-2.0957,-2.0948,-2.0926,-2.0916,-2.089,-2.0882,-2.0885,-2.086,-2.0877,-2.0857,-2.0845,-2.0845,-2.0851,-2.0912,-2.0929,-2.0965,-2.089,-2.0891,-2.0891,0,-2.1115,-2.11,-2.1105,-2.1073,-2.107,-2.107,-2.1052,-2.1045,-2.1022,-2.1007,-2.0994,-2.0967,-2.0964,-2.0938,-2.0933,-2.0921,-2.0914,-2.0902,-2.0902,-2.0899,-2.087,-2.091,-2.0976,-2.0981,-2.0898,-2.0897,-2.0897,0,-2.117,-2.1151,-2.1151,-2.1142,-2.1105,-2.1107,-2.1091,-2.1068,-2.1059,-2.1044,-2.1038,-2.1022,-2.1013,-2.1002,-2.0971,-2.0955,-2.097,-2.0941,-2.0957,-2.0958,-2.0961,-2.0961,-2.1027,-2.0959,-2.0959,-2.0959,-2.0959,0,-2.1216,-2.122,-2.1175,-2.1176,-2.118,-2.1144,-2.1149,-2.1131,-2.111,-2.1106,-2.1072,-2.1069,-2.1029,-2.1021,-2.0997,-2.0997,-2.0994,-2.0981,-2.0974,-2.0983,-2.0985,-2.0978,-2.0974,-2.096,-2.096,-2.096,-2.0959,0,-2.1277,-2.1247,-2.1245,-2.1211,-2.1203,-2.1207,-2.1178,-2.1177,-2.1155,-2.115,-2.1147,-2.1112,-2.1102,-2.107,-2.1052,-2.1036,-2.1042,-2.1031,-2.105,-2.1046,-2.1063,-2.1062,-2.1125,-2.1131,-2.1061,-2.1062,-2.1062,0,-2.1308,-2.131,-2.1277,-2.1272,-2.1258,-2.1251,-2.1242,-2.1208,-2.1201,-2.1176,-2.1178,-2.1165,-2.1152,-2.1137,-2.111,-2.1095,-2.1082,-2.1106,-2.108,-2.1089,-2.1082,-2.1082,-2.1082,-2.1111,-2.1112,-2.1113,-2.1113,0,-2.1365,-2.1351,-2.134,-2.1324,-2.1315,-2.1301,-2.1285,-2.1283,-2.1245,-2.1239,-2.1227,-2.1218,-2.1199,-2.1186,-2.1168,-2.1152,-2.1126,-2.1122,-2.1125,-2.1133,-2.1144,-2.1138,-2.1064,-2.112,-2.112,-2.1119,-2.1119,-2.1118,-2.1412,-2.1412,-2.1389,-2.1378,-2.1363,-2.1349,-2.1346,-2.1324,-2.1314,-2.1297,-2.1277,-2.1268,-2.1246,-2.1219,-2.1205,-2.1198,-2.1184,-2.1188,-2.1189,-2.119,-2.1194,-2.1147,-2.1194,-2.1194,-2.1194,-2.1193,-2.1193,0,-2.1467,-2.145,-2.1441,-2.142,-2.1412,-2.1389,-2.137,-2.1365,-2.1357,-2.1339,-2.1328,-2.1315,-2.1303,-2.1275,-2.1261,-2.126,-2.1248,-2.1257,-2.1256,-2.1253,-2.1208,-2.1206,-2.1267,-2.1267,-2.1267,-2.1267,-2.1267,-2.1267,-2.1495,-2.1494,-2.1477,-2.1469,-2.1452,-2.1443,-2.1435,-2.1422,-2.1407,-2.1394,-2.1384,-2.1367,-2.1345,-2.1328,-2.1316,-2.1308,-2.1304,-2.1317,-2.1305,-2.1263,-2.1256,-2.1249,-2.1248,-2.1316,-2.1316,-2.1351,-2.1351,-2.1351]},{"header":{"parameterUnit":"m.s-1","parameterCategory":1,"la1":30.2991,"la2":30.254,"lo1":-89.0895,"lo2":-89.0444,"dy":0.0017,"dx":0.0017,"nx":28,"ny":28,"refTime":"2024-04-18T03:00:00:Z","depth":0,"parameterNumber":3,"parameterNumberName":"V-component_of_WINDS"},"data":[0,0,0,0,0,0,0,0,0,0,0,0,0,0,0,0,0,0,0,0,0,0,0,0,0,0,0,0,0,0,0,0,0,0,0,0,0,0,0,0,0,0,0,0,0,0,0,0,0,0,0,0,0,0,0,0,0,0,3.467,3.467,0,3.4695,3.4695,3.4696,3.4648,3.4646,3.4645,3.4643,3.4667,3.4669,3.4671,0,0,0,0,0,0,0,0,0,0,0,0,0,3.4578,3.458,3.467,3.467,3.467,3.4695,3.4695,3.4696,3.4648,3.4646,3.4644,3.4643,3.4666,3.4669,3.4671,0,0,0,0,0,0,0,0,0,0,0,0,0,3.4612,3.4581,3.467,3.465,3.4648,3.4695,3.4696,3.4696,3.4649,3.4646,3.4644,3.4642,3.4665,3.4668,3.4672,3.4738,0,0,3.4681,3.4683,0,0,0,0,0,0,0,0,3.461,3.4616,3.4652,3.4651,3.4649,3.4666,3.4672,3.471,3.4649,3.4648,3.4643,3.464,3.4668,3.4671,3.4681,3.474,3.4741,3.4681,3.4683,3.4685,3.4686,0,0,0,0,0,0,0,3.4608,3.4614,3.468,3.4653,3.4651,3.4639,3.4641,3.4679,3.4671,3.4648,3.4645,3.4649,3.4667,3.4678,3.4681,3.4741,3.4681,3.4684,3.4686,3.4687,3.4858,3.486,0,0,0,0,0,0,3.4609,3.4613,3.4679,3.468,3.4624,3.4642,3.4645,3.4663,3.4671,3.467,3.4651,3.4646,3.4674,3.4678,3.4682,3.4762,3.4685,3.4688,3.4689,3.4855,3.4858,3.4861,0,0,0,0,0,0,3.4607,3.4615,3.4678,3.4646,3.4653,3.4647,3.4667,3.4665,3.4676,3.4673,3.4671,3.4663,3.4672,3.4677,3.4725,3.4763,3.4689,3.4692,3.4852,3.4856,3.486,3.4923,0,0,0,0,0,0,3.4604,3.4615,3.464,3.4647,3.4655,3.4722,3.4669,3.4667,3.4682,3.4676,3.4684,3.4683,3.4671,3.4721,3.4729,3.4766,3.4694,3.4849,3.4854,3.4859,3.4918,3.4929,3.4938,0,0,0,0,0,3.4601,3.4656,3.4642,3.465,3.4687,3.4724,3.4728,3.4714,3.4685,3.4711,3.4709,3.4683,3.4757,3.4726,3.4734,3.4773,3.4846,3.4853,3.4858,3.4913,3.4927,3.4938,0,0,0,0,0,0,3.4652,3.4656,3.4641,3.4699,3.4712,3.4716,3.4747,3.4728,3.4748,3.4742,3.4722,3.4725,3.4777,3.4779,3.4745,3.4839,3.4797,3.4805,3.4836,3.4849,3.4859,3.4858,3.4697,0,0,0,0,0,3.4671,3.4701,3.4703,3.4754,3.4761,3.4754,3.4769,3.4757,3.4769,3.4774,3.4775,3.4787,3.4813,3.4831,3.4854,3.4918,3.492,3.4948,3.4959,3.4967,3.4974,3.501,3.5023,3.4881,3.4881,3.4881,0,0,3.4708,3.4714,3.4735,3.4765,3.4773,3.4805,3.4758,3.4793,3.4817,3.4778,3.4825,3.4827,3.4839,3.4895,3.492,3.4899,3.5014,3.4975,3.4981,3.4984,3.5017,3.5031,3.5043,3.4885,3.4884,3.4883,0,0,3.4794,3.4801,3.4846,3.4856,3.487,3.4864,3.4875,3.4883,3.4883,3.4929,3.4902,3.4929,3.4974,3.4984,3.4996,3.5087,3.5065,3.5095,3.5149,3.5184,3.5196,3.5205,3.524,3.5252,3.5102,3.5103,3.5103,0,3.4839,3.4887,3.4871,3.4909,3.4924,3.4892,3.4937,3.4947,3.4968,3.4978,3.4954,3.5012,3.5017,3.5077,3.51,3.5109,3.5122,3.5095,3.5195,3.5205,3.5214,3.5247,3.5259,3.5106,3.5106,3.5106,3.5105,0,3.4943,3.4976,3.501,3.5033,3.5051,3.5093,3.5083,3.5104,3.509,3.5088,3.5136,3.5142,3.5167,3.518,3.5166,3.5239,3.5225,3.5199,3.5156,3.5232,3.5262,3.5274,3.5112,3.511,3.5109,3.5108,0,0,3.5061,3.5076,3.5089,3.5099,3.5113,3.5138,3.5179,3.5205,3.5224,3.5239,3.5273,3.5313,3.5289,3.5302,3.5289,3.5319,3.5394,3.5289,3.5289,3.531,3.5476,3.5497,3.5512,3.5379,3.5381,3.5383,3.5475,0,3.5147,3.5218,3.5206,3.5275,3.5307,3.5277,3.5313,3.5325,3.5324,3.535,3.5348,3.5378,3.5343,3.5351,3.538,3.5379,3.5427,3.5372,3.5411,3.5413,3.5411,3.5527,3.5549,3.5636,3.5487,3.5489,3.549,0,3.5257,3.5279,3.5352,3.5363,3.5375,3.5408,3.5432,3.5457,3.5471,3.5468,3.5483,3.5465,3.5506,3.5462,3.5518,3.5481,3.5496,3.5498,3.5501,3.5505,3.5457,3.5536,3.5663,3.5677,3.5509,3.5507,3.5506,0,3.5339,3.5386,3.5436,3.5446,3.5459,3.5483,3.5489,3.55,3.5518,3.5538,3.5549,3.5574,3.5588,3.5607,3.5597,3.5565,3.5655,3.561,3.5655,3.5655,3.5676,3.5675,3.5809,3.5683,3.5683,3.5683,3.5682,0,3.5438,3.5484,3.5473,3.5504,3.5555,3.5541,3.5591,3.5594,3.5605,3.5636,3.5611,3.564,3.5624,3.5653,3.5644,3.5693,3.5699,3.5698,3.5696,3.5701,3.5702,3.5712,3.5706,3.5686,3.5685,3.5685,3.5684,0,3.5538,3.5532,3.5585,3.5594,3.5598,3.5635,3.5642,3.5671,3.5669,3.5709,3.5717,3.5713,3.5745,3.5737,3.5771,3.5765,3.5828,3.5817,3.5824,3.5822,3.5868,3.5864,3.6014,3.6034,3.5894,3.5895,3.5896,0,3.5602,3.5637,3.565,3.567,3.5679,3.571,3.5729,3.5715,3.5735,3.5754,3.5782,3.5812,3.5836,3.5889,3.5889,3.5915,3.5906,3.5957,3.591,3.5915,3.5909,3.5908,3.5912,3.5966,3.5968,3.5969,3.597,0,3.5717,3.5713,3.574,3.5768,3.5791,3.5811,3.5829,3.5846,3.5835,3.5858,3.5892,3.591,3.5947,3.5978,3.6003,3.6009,3.5989,3.5985,3.5997,3.6004,3.6008,3.6008,3.5851,3.5982,3.5981,3.598,3.5979,3.5979,3.5802,3.5833,3.5848,3.588,3.5892,3.591,3.5939,3.5941,3.5969,3.5999,3.5989,3.6028,3.6041,3.6073,3.6082,3.6113,3.6093,3.611,3.6115,3.612,3.6126,3.6002,3.6117,3.6116,3.6116,3.6116,3.6115,0,3.5918,3.5926,3.5956,3.5983,3.6009,3.5988,3.6007,3.603,3.6065,3.608,3.6104,3.6144,3.6174,3.6177,3.6205,3.6229,3.6221,3.6237,3.6236,3.6238,3.6141,3.6129,3.6244,3.6244,3.6244,3.6244,3.6244,3.6244,3.5981,3.6033,3.6031,3.6089,3.6097,3.6136,3.6149,3.6166,3.6178,3.6224,3.6249,3.6251,3.6262,3.6291,3.6318,3.6318,3.6331,3.6352,3.6348,3.6258,3.6245,3.6233,3.6221,3.6354,3.6354,3.6443,3.6444,3.6445]}]]